Columbus, OH

1:40 PM EDT on October 18, 2017 (GMT -0400)
Port Columbus International

Weather History for KCMH - January, 2014

Change the Weather History Date:

Sunday, January 5, 2014

  Actual Average Record
Temperature  
Mean Temperature 41 °F 30 °F  
Max Temperature 55 °F 36 °F 65 °F (1998)
Min Temperature 27 °F 23 °F -16 °F (1884)
Degree Days  
Heating Degree Days 24 35  
Month to date heating degree days 200 175  
Since 1 July heating degree days 2193 2166  
Cooling Degree Days 0 0  
Month to date cooling degree days 0 0  
Year to date cooling degree days 0 0  
Moisture  
Dew Point 31 °F    
Average Humidity 74    
Maximum Humidity 100    
Minimum Humidity 47    
Precipitation  
Precipitation 0.35 in 0.10 in 2.21 in (2005)
Month to date precipitation 0.61 0.48  
Year to date precipitation 0.61 0.48  
Snow  
Snow T in 0.20 in 2.50 in (2003)
Month to date snowfall 3.3 1.3  
Since 1 July snowfall 20.7 7.4  
Snow Depth 2.00 in    
Sea Level Pressure  
Sea Level Pressure 29.78 in    
Wind  
Wind Speed 8 mph (SSE)    
Max Wind Speed 28 mph    
Max Gust Speed 33 mph    
Visibility 8 miles    
Events Rain , Snow    
T = Trace of Precipitation, MM = Missing Value Source: NWS Daily Summary

Daily Weather History Graph

Daily Weather History Graph

Search for Another Location

Airport or City:

Trip Planner

Search our weather history database for the weather conditions in past years. The results will help you decide how hot, cold, wet, or windy it might be!

Date:

Astronomy

Jan. 05, 2014 Rise Set
Actual Time 7:53 AM EST 5:20 PM EST
Civil Twilight 7:23 AM EST 5:50 PM EST
Nautical Twilight 6:49 AM EST 6:24 PM EST
Astronomical Twilight 6:16 AM EST 6:57 PM EST
Moon 10:34 AM EST (1/5) 10:47 PM EST (1/5)
Length of Visible Light 10h 27m
Length of Day
9h 27m
Waxing Crescent, 24% of the Moon is Illuminated
Jan 5
Waxing Crescent
Jan 7
First Quarter
Jan 15
Full
Jan 24
Last Quarter
Jan 30
New

Hourly Weather History & Observations

Time (EST) Temp. Windchill Dew Point Humidity Pressure Visibility Wind Dir Wind Speed Gust Speed Precip Events Conditions
12:51 AM 28.9 °F 25.2 °F 19.0 °F 67% 30.11 in 10.0 mi WNW 3.5 mph - N/A   Overcast
1:51 AM 30.0 °F 26.5 °F 19.0 °F 64% 30.10 in 10.0 mi East 3.5 mph - N/A   Overcast
2:51 AM 30.9 °F 27.5 °F 19.0 °F 61% 30.09 in 10.0 mi SE 3.5 mph - N/A   Overcast
3:51 AM 32.0 °F 26.4 °F 17.1 °F 54% 30.08 in 10.0 mi SSE 5.8 mph - N/A   Overcast
4:51 AM 33.1 °F 30.0 °F 19.0 °F 56% 30.06 in 10.0 mi SSE 3.5 mph - N/A   Overcast
5:51 AM 34.0 °F 31.0 °F 21.0 °F 59% 30.05 in 10.0 mi SSE 3.5 mph - N/A   Overcast
6:51 AM 35.1 °F 29.3 °F 24.1 °F 64% 30.04 in 10.0 mi SSE 6.9 mph - N/A   Overcast
7:51 AM 35.1 °F 29.3 °F 25.0 °F 67% 30.04 in 10.0 mi SE 6.9 mph - N/A   Overcast
8:34 AM 35.6 °F 30.7 °F 24.8 °F 65% 30.02 in 10.0 mi SSE 5.8 mph - N/A   Overcast
8:51 AM 35.1 °F 30.1 °F 25.0 °F 67% 30.03 in 10.0 mi ESE 5.8 mph - N/A   Overcast
9:28 AM 35.6 °F - 26.6 °F 70% 30.00 in 10.0 mi Calm Calm - N/A   Overcast
9:51 AM 37.0 °F - 27.0 °F 67% 30.01 in 10.0 mi Calm Calm - N/A   Overcast
10:07 AM 35.6 °F - 28.4 °F 75% 29.98 in 2.5 mi Calm Calm - 0.00 in Rain Light Rain
10:17 AM 35.6 °F - 30.2 °F 81% 29.98 in 2.0 mi Calm Calm - 0.01 in Rain Light Rain
10:51 AM 35.1 °F 29.3 °F 32.0 °F 89% 29.96 in 2.5 mi ESE 6.9 mph - 0.04 in Rain Light Rain
11:16 AM 35.6 °F 28.6 °F 32.0 °F 87% 29.91 in 2.5 mi ESE 9.2 mph - 0.00 in   Overcast
11:25 AM 35.6 °F 29.2 °F 32.0 °F 87% 29.90 in 6.0 mi ESE 8.1 mph - 0.00 in   Overcast
11:51 AM 37.0 °F 31.6 °F 32.0 °F 82% 29.88 in 8.0 mi ESE 6.9 mph - 0.00 in   Overcast
12:13 PM 37.4 °F 32.1 °F 32.0 °F 81% 29.83 in 10.0 mi SE 6.9 mph - N/A   Overcast
12:51 PM 39.9 °F 35.8 °F 32.0 °F 73% 29.82 in 10.0 mi SE 5.8 mph - N/A   Overcast
1:35 PM 42.8 °F 38.6 °F 33.8 °F 70% 29.74 in 10.0 mi SE 6.9 mph - N/A   Overcast
1:51 PM 43.0 °F 37.7 °F 34.0 °F 71% 29.74 in 10.0 mi SE 9.2 mph - N/A   Overcast
2:51 PM 44.1 °F 38.6 °F 33.1 °F 65% 29.70 in 10.0 mi SE 10.4 mph - N/A   Overcast
3:51 PM 44.1 °F 40.8 °F 33.1 °F 65% 29.68 in 10.0 mi SE 5.8 mph - N/A   Overcast
4:51 PM 44.1 °F 39.0 °F 34.0 °F 68% 29.64 in 10.0 mi ESE 9.2 mph - N/A   Overcast
5:51 PM 43.0 °F 37.7 °F 35.1 °F 74% 29.56 in 10.0 mi ESE 9.2 mph - 0.01 in Rain Light Rain
6:51 PM 43.0 °F 37.7 °F 36.0 °F 76% 29.53 in 10.0 mi SE 9.2 mph - 0.02 in Rain Light Rain
7:51 PM 42.1 °F 36.6 °F 37.9 °F 85% 29.50 in 6.0 mi SE 9.2 mph - 0.11 in Rain Light Rain
8:21 PM 42.8 °F 39.3 °F 39.2 °F 87% 29.46 in 7.0 mi South 5.8 mph - 0.02 in Rain Light Rain
8:51 PM 45.0 °F 39.3 °F 42.1 °F 90% 29.44 in 9.0 mi SSE 11.5 mph - 0.03 in Rain Light Rain
9:29 PM 46.4 °F 40.4 °F 44.6 °F 93% 29.40 in 6.0 mi South 13.8 mph 23.0 mph 0.00 in Rain Light Rain
9:51 PM 46.9 °F - 45.0 °F 93% 29.39 in 6.0 mi South 12.7 mph 20.7 mph 0.02 in Rain Light Rain
10:19 PM 44.6 °F 35.7 °F 42.8 °F 93% 29.41 in 3.0 mi West 24.2 mph 31.1 mph 0.03 in Rain Heavy Rain
10:28 PM 41.0 °F 30.9 °F 41.0 °F 100% 29.41 in 3.0 mi WNW 24.2 mph 33.4 mph 0.05 in Rain Rain
10:49 PM 37.4 °F 28.9 °F 37.4 °F 100% 29.44 in 3.0 mi WNW 13.8 mph - 0.09 in Rain Light Rain
10:51 PM 37.9 °F 29.6 °F 37.4 °F 98% 29.45 in 3.0 mi WNW 13.8 mph - 0.09 in Rain Light Rain
11:44 PM 35.6 °F 24.0 °F 32.0 °F 87% 29.48 in 1.5 mi WNW 23.0 mph 27.6 mph 0.02 in Snow Light Snow
11:51 PM 36.0 °F 24.7 °F 32.0 °F 86% 29.52 in 1.5 mi WNW 21.9 mph 31.1 mph 0.03 in Snow Light Snow
11:58 PM 33.8 °F 21.6 °F 32.0 °F 93% 29.51 in 1.0 mi WNW 23.0 mph 32.2 mph 0.00 in Snow Light Snow